• In United Kingdom
  • List of Countries
  • For 7 days
  • Water Temperature
  • Satellite Maps
  • Weather Map
  • Weather Widgets
  • user-avatar
    Login

    Hourly Weather Algiers

    Today, 19 February, Monday

    Time Temperature Precipitation Wind Pressure Humidity
    00:00 +10°C° 0 mm 3 mps 750 mmHg 92%
    01:00 +10°C° 0 mm 3 mps 750 mmHg 92%
    02:00 +9°C° 0 mm 3 mps 750 mmHg 92%
    03:00 +9°C° 0 mm 2 mps 749 mmHg 92%
    04:00 +9°C° 0 mm 2 mps 749 mmHg 92%
    05:00 +9°C° 0 mm 2 mps 749 mmHg 92%
    06:00 +9°C° 0 mm 2 mps 749 mmHg 91%
    07:00 +10°C° 0.1 mm 2 mps 749 mmHg 86%
    08:00 +12°C° 0.1 mm 3 mps 749 mmHg 81%
    09:00 +13°C° 0.1 mm 3 mps 749 mmHg 76%
    10:00 +14°C° 0.1 mm 3 mps 749 mmHg 73%
    11:00 +14°C° 0.1 mm 3 mps 749 mmHg 69%
    12:00 +16°C° 0.1 mm 3 mps 749 mmHg 65%
    13:00 +16°C° 0.1 mm 3 mps 748 mmHg 66%
    14:00 +15°C° 0.1 mm 4 mps 748 mmHg 66%
    15:00 +15°C° 0.1 mm 4 mps 748 mmHg 66%
    16:00 +14°C° 0.1 mm 4 mps 748 mmHg 71%
    17:00 +13°C° 0.1 mm 3 mps 748 mmHg 76%
    18:00 +11°C° 0.1 mm 3 mps 748 mmHg 81%
    19:00 +11°C° 0 mm 3 mps 748 mmHg 83%
    20:00 +12°C° 0 mm 2 mps 748 mmHg 85%
    21:00 +10°C° 0 mm 2 mps 749 mmHg 86%
    22:00 +10°C° 0 mm 2 mps 749 mmHg 88%
    23:00 +10°C° 0 mm 1 mps 749 mmHg 89%

    Tomorrow, 20 February, Tuesday

    Time Temperature Precipitation Wind Pressure Humidity
    00:00 +10°C° 0 mm 1 mps 749 mmHg 90%
    01:00 +10°C° 0 mm 1 mps 748 mmHg 90%
    02:00 +9°C° 0 mm 1 mps 748 mmHg 91%
    03:00 +9°C° 0 mm 1 mps 748 mmHg 92%
    04:00 +8°C° 0 mm 2 mps 748 mmHg 92%
    05:00 +7°C° 0 mm 2 mps 748 mmHg 92%
    06:00 +7°C° 0 mm 2 mps 748 mmHg 92%
    07:00 +9°C° 0.1 mm 3 mps 748 mmHg 86%
    08:00 +10°C° 0.1 mm 3 mps 748 mmHg 81%
    09:00 +11°C° 0.1 mm 3 mps 748 mmHg 75%
    10:00 +12°C° 0.1 mm 4 mps 748 mmHg 70%
    11:00 +13°C° 0.1 mm 5 mps 748 mmHg 64%
    12:00 +15°C° 0.1 mm 6 mps 747 mmHg 58%
    13:00 +14°C° 0.2 mm 6 mps 747 mmHg 62%
    14:00 +14°C° 0.2 mm 6 mps 747 mmHg 65%
    15:00 +14°C° 0.2 mm 6 mps 746 mmHg 69%
    16:00 +13°C° 0.3 mm 6 mps 746 mmHg 74%
    17:00 +12°C° 0.3 mm 5 mps 746 mmHg 79%
    18:00 +10°C° 0.3 mm 5 mps 746 mmHg 85%
    19:00 +10°C° 0.1 mm 5 mps 746 mmHg 86%
    20:00 +9°C° 0.1 mm 5 mps 746 mmHg 88%
    21:00 +9°C° 0.1 mm 5 mps 746 mmHg 89%
    22:00 +9°C° 0.1 mm 5 mps 746 mmHg 89%
    23:00 +8°C° 0.1 mm 5 mps 746 mmHg 89%

    Day after tomorrow, 21 February, Wednesday

    Time Temperature Precipitation Wind Pressure Humidity
    00:00 +8°C° 0.1 mm 5 mps 745 mmHg 89%
    01:00 +8°C° 0.1 mm 5 mps 745 mmHg 87%
    02:00 +8°C° 0.1 mm 5 mps 745 mmHg 86%
    03:00 +8°C° 0.1 mm 5 mps 744 mmHg 85%
    04:00 +8°C° 0.4 mm 4 mps 744 mmHg 83%
    05:00 +8°C° 0.4 mm 4 mps 743 mmHg 82%
    06:00 +8°C° 0.4 mm 4 mps 743 mmHg 80%
    07:00 +10°C° 0.8 mm 3 mps 743 mmHg 76%
    08:00 +11°C° 0.8 mm 3 mps 743 mmHg 72%
    09:00 +13°C° 0.8 mm 2 mps 742 mmHg 68%
    10:00 +13°C° 0.6 mm 3 mps 742 mmHg 65%
    11:00 +14°C° 0.6 mm 4 mps 742 mmHg 63%
    12:00 +15°C° 0.6 mm 4 mps 741 mmHg 60%
    13:00 +14°C° 0.3 mm 5 mps 741 mmHg 61%
    14:00 +14°C° 0.3 mm 5 mps 740 mmHg 63%
    15:00 +14°C° 0.3 mm 5 mps 740 mmHg 65%
    16:00 +12°C° 0.4 mm 5 mps 740 mmHg 72%
    17:00 +10°C° 0.4 mm 6 mps 740 mmHg 80%
    18:00 +9°C° 0.4 mm 6 mps 740 mmHg 87%
    19:00 +9°C° 0.3 mm 6 mps 741 mmHg 89%
    20:00 +9°C° 0.3 mm 5 mps 741 mmHg 90%
    21:00 +8°C° 0.3 mm 5 mps 741 mmHg 92%
    22:00 +8°C° 0.2 mm 4 mps 741 mmHg 91%
    23:00 +9°C° 0.2 mm 3 mps 741 mmHg 90%

    22 February, Thursday

    Time Temperature Precipitation Wind Pressure Humidity
    00:00 +9°C° 0.2 mm 3 mps 741 mmHg 89%
    01:00 +8°C° 0.3 mm 3 mps 741 mmHg 89%
    02:00 +8°C° 0.3 mm 3 mps 740 mmHg 89%
    03:00 +8°C° 0.3 mm 3 mps 740 mmHg 89%
    04:00 +8°C° 0.5 mm 3 mps 740 mmHg 90%
    05:00 +7°C° 0.5 mm 3 mps 740 mmHg 91%
    06:00 +7°C° 0.5 mm 3 mps 740 mmHg 91%
    07:00 +8°C° 0.5 mm 3 mps 740 mmHg 86%
    08:00 +9°C° 0.5 mm 3 mps 740 mmHg 81%
    09:00 +9°C° 0.5 mm 3 mps 740 mmHg 76%
    10:00 +10°C° 0.6 mm 3 mps 740 mmHg 72%
    11:00 +10°C° 0.6 mm 3 mps 740 mmHg 68%
    12:00 +12°C° 0.6 mm 2 mps 740 mmHg 64%
    13:00 +12°C° 0.3 mm 2 mps 739 mmHg 63%
    14:00 +12°C° 0.3 mm 2 mps 739 mmHg 63%
    15:00 +12°C° 0.3 mm 1 mps 738 mmHg 62%
    16:00 +11°C° 0 mm 1 mps 738 mmHg 66%
    17:00 +10°C° 0 mm 1 mps 738 mmHg 70%
    18:00 +9°C° 0 mm 1 mps 738 mmHg 75%
    19:00 +8°C° 0.1 mm 2 mps 739 mmHg 75%
    20:00 +7°C° 0.1 mm 2 mps 739 mmHg 76%
    21:00 +7°C° 0.1 mm 3 mps 739 mmHg 76%
    22:00 +8°C° 0.3 mm 3 mps 738 mmHg 76%
    23:00 +7°C° 0.3 mm 4 mps 738 mmHg 75%

    23 February, Friday

    Time Temperature Precipitation Wind Pressure Humidity
    00:00 +7°C° 0.3 mm 4 mps 738 mmHg 75%
    01:00 +7°C° 0.5 mm 4 mps 738 mmHg 79%
    02:00 +7°C° 0.5 mm 5 mps 737 mmHg 83%
    03:00 +7°C° 0.5 mm 6 mps 737 mmHg 87%
    04:00 +5°C° 0.3 mm 6 mps 737 mmHg 87%
    05:00 +5°C° 0.3 mm 6 mps 738 mmHg 88%
    06:00 +4°C° 0.3 mm 6 mps 738 mmHg 88%
    07:00 +7°C° 0.2 mm 6 mps 738 mmHg 81%
    08:00 +8°C° 0.2 mm 6 mps 739 mmHg 74%
    09:00 +9°C° 0.2 mm 6 mps 739 mmHg 66%
    10:00 +9°C° 0.1 mm 6 mps 739 mmHg 62%
    11:00 +10°C° 0.1 mm 6 mps 740 mmHg 57%
    12:00 +11°C° 0.1 mm 7 mps 740 mmHg 52%
    13:00 +11°C° 0 mm 6 mps 740 mmHg 52%
    14:00 +11°C° 0 mm 6 mps 740 mmHg 53%
    15:00 +12°C° 0 mm 5 mps 740 mmHg 53%
    16:00 +10°C° 0 mm 5 mps 740 mmHg 61%
    17:00 +8°C° 0 mm 4 mps 740 mmHg 68%
    18:00 +8°C° 0 mm 3 mps 741 mmHg 75%
    19:00 +7°C° 0 mm 2 mps 741 mmHg 78%
    20:00 +7°C° 0 mm 2 mps 742 mmHg 80%
    21:00 +7°C° 0 mm 2 mps 742 mmHg 83%
    22:00 +6°C° 0 mm 2 mps 742 mmHg 83%
    23:00 +7°C° 0 mm 1 mps 742 mmHg 82%

    24 February, Saturday

    Time Temperature Precipitation Wind Pressure Humidity
    00:00 +7°C° 0 mm 1 mps 743 mmHg 82%
    01:00 +6°C° 0 mm 2 mps 742 mmHg 79%
    02:00 +6°C° 0 mm 2 mps 742 mmHg 77%
    03:00 +6°C° 0 mm 2 mps 742 mmHg 75%
    04:00 +6°C° 0 mm 2 mps 742 mmHg 75%
    05:00 +6°C° 0 mm 2 mps 743 mmHg 74%
    06:00 +6°C° 0 mm 2 mps 743 mmHg 73%
    07:00 +8°C° 0 mm 2 mps 743 mmHg 69%
    08:00 +9°C° 0 mm 3 mps 743 mmHg 65%
    09:00 +11°C° 0 mm 3 mps 743 mmHg 61%
    10:00 +12°C° 0 mm 3 mps 743 mmHg 58%
    11:00 +14°C° 0 mm 3 mps 743 mmHg 55%
    12:00 +16°C° 0 mm 3 mps 743 mmHg 52%
    13:00 +15°C° 0 mm 4 mps 742 mmHg 52%
    14:00 +17°C° 0 mm 4 mps 742 mmHg 52%
    15:00 +16°C° 0 mm 5 mps 742 mmHg 52%
    16:00 +15°C° 0 mm 5 mps 742 mmHg 59%
    17:00 +13°C° 0 mm 5 mps 742 mmHg 67%
    18:00 +10°C° 0 mm 5 mps 742 mmHg 75%
    19:00 +10°C° 0 mm 5 mps 742 mmHg 73%
    20:00 +12°C° 0 mm 5 mps 742 mmHg 72%
    21:00 +12°C° 0 mm 5 mps 743 mmHg 71%
    22:00 +12°C° 0 mm 5 mps 743 mmHg 69%
    23:00 +12°C° 0 mm 5 mps 742 mmHg 67%
    Show more